Dades meteomassalio
Diari Summary for Juliol 21, 2017 Units:  Metric    English   Both
« Previous Day
Next Day »
Diari Semanal Mensual Anual Personalitzat
  Maxima: Minima: Mijana:
Temperatura: 28.0 °C 17.3 °C 22.6 °C
Rosada: 20.7 °C 13.1 °C 16.6 °C
Humitat: 90 % 54 % 70 %
Velocitat del vent: 33.8 km/h 0.0 km/h 6.8 km/h
Racha vent: 33.8 km/h - -
Vent:- - SSE
Pressio: 1012.1 hPa 1008.7 hPa -
Pluja: 8.4 mm    
Historical Graphs
 
 
Tabular Data for Juliol 21, 2017
Time Temperature Dew Point Pressure Wind Wind Speed Wind Gust Humidity Rainfall Rate (Hourly) solar Conditions
00:02 24.9 °C 15.3 °C 1011.1 hPa NW 16.7 km/h 16.7 km/h 55 % 0.0 mm 0.0 W/m2 CLR
00:07 24.7 °C 14.7 °C 1011.1 hPa NNW 16.1 km/h 16.1 km/h 54 % 0.0 mm 0.0 W/m2 CLR
00:12 24.4 °C 14.8 °C 1011.1 hPa NNW 14.8 km/h 14.8 km/h 55 % 0.0 mm 0.0 W/m2 CLR
00:17 24.3 °C 14.7 °C 1011.1 hPa NNW 18.5 km/h 18.5 km/h 55 % 0.0 mm 0.0 W/m2 CLR
00:22 24.1 °C 14.5 °C 1011.1 hPa NW 8.0 km/h 8.0 km/h 55 % 0.0 mm 0.0 W/m2 CLR
00:27 24.0 °C 14.4 °C 1011.1 hPa NW 14.8 km/h 14.8 km/h 55 % 0.0 mm 0.0 W/m2 CLR
00:32 23.8 °C 14.5 °C 1011.4 hPa WNW 9.3 km/h 9.3 km/h 56 % 0.0 mm 0.0 W/m2 CLR
00:37 23.7 °C 14.4 °C 1011.4 hPa WNW 14.8 km/h 14.8 km/h 56 % 0.0 mm 0.0 W/m2 CLR
00:42 23.5 °C 13.9 °C 1011.4 hPa NNW 11.3 km/h 11.3 km/h 55 % 0.0 mm 0.0 W/m2 CLR
00:47 23.4 °C 14.1 °C 1011.4 hPa NW 3.7 km/h 3.7 km/h 56 % 0.0 mm 0.0 W/m2 CLR
00:52 23.2 °C 13.9 °C 1011.7 hPa NW 11.1 km/h 11.1 km/h 56 % 0.0 mm 0.0 W/m2 CLR
00:57 23.1 °C 14.1 °C 1011.4 hPa NW 7.4 km/h 7.4 km/h 57 % 0.0 mm 0.0 W/m2 CLR
01:02 23.1 °C 14.1 °C 1011.7 hPa Calm     57 % 0.0 mm 0.0 W/m2 CLR
01:07 22.9 °C 13.9 °C 1011.7 hPa Calm     57 % 0.0 mm 0.0 W/m2 CLR
01:12 22.9 °C 13.9 °C 1011.7 hPa Calm     57 % 0.0 mm 0.0 W/m2 CLR
01:17 22.8 °C 14.1 °C 1011.7 hPa Calm     58 % 0.0 mm 0.0 W/m2 CLR
01:22 22.7 °C 14.1 °C 1011.7 hPa Calm     58 % 0.0 mm 0.0 W/m2 CLR
01:27 22.7 °C 14.0 °C 1011.7 hPa Calm     58 % 0.0 mm 0.0 W/m2 CLR
01:32 22.6 °C 13.9 °C 1011.7 hPa Calm     58 % 0.0 mm 0.0 W/m2 CLR
01:37 22.6 °C 13.9 °C 1011.7 hPa Calm     58 % 0.0 mm 0.0 W/m2 CLR
01:42 22.6 °C 13.9 °C 1011.7 hPa Calm     58 % 0.0 mm 0.0 W/m2 CLR
01:47 22.5 °C 13.8 °C 1011.7 hPa Calm     58 % 0.0 mm 0.0 W/m2 CLR
01:52 22.4 °C 13.8 °C 1011.7 hPa Calm     58 % 0.0 mm 0.0 W/m2 CLR
01:57 22.4 °C 13.7 °C 1011.7 hPa Calm     58 % 0.0 mm 0.0 W/m2 CLR
02:02 22.3 °C 13.7 °C 1011.7 hPa Calm   1.0 km/h 58 % 0.0 mm 0.0 W/m2 CLR
02:07 22.3 °C 13.6 °C 1011.7 hPa Calm     58 % 0.0 mm 0.0 W/m2 CLR
02:12 22.2 °C 13.6 °C 1011.7 hPa NW 8.0 km/h 8.0 km/h 58 % 0.0 mm 0.0 W/m2 CLR
02:17 22.2 °C 13.8 °C 1011.7 hPa NNW 13.0 km/h 13.0 km/h 59 % 0.0 mm 0.0 W/m2 CLR
02:22 22.1 °C 13.7 °C 1011.4 hPa NW 11.3 km/h 11.3 km/h 59 % 0.0 mm 0.0 W/m2 CLR
02:27 22.1 °C 13.7 °C 1011.4 hPa NW 5.6 km/h 5.6 km/h 59 % 0.0 mm 0.0 W/m2 CLR
02:32 22.1 °C 13.7 °C 1011.4 hPa NNW 6.4 km/h 6.4 km/h 59 % 0.0 mm 0.0 W/m2 CLR
02:37 22.1 °C 13.7 °C 1011.4 hPa NW 5.6 km/h 5.6 km/h 59 % 0.0 mm 0.0 W/m2 CLR
02:42 22.0 °C 13.6 °C 1011.4 hPa NW 3.7 km/h   59 % 0.0 mm 0.0 W/m2 CLR
02:47 22.0 °C 13.6 °C 1011.4 hPa Calm   0.3 km/h 59 % 0.0 mm 0.0 W/m2 CLR
02:53 21.9 °C 13.6 °C 1011.7 hPa NW 7.4 km/h 7.4 km/h 59 % 0.0 mm 0.0 W/m2 CLR
02:57 21.9 °C 13.5 °C 1011.4 hPa WNW 5.6 km/h 5.6 km/h 59 % 0.0 mm 0.0 W/m2 CLR
03:02 21.8 °C 13.4 °C 1011.4 hPa Calm     59 % 0.0 mm 0.0 W/m2 CLR
03:08 21.7 °C 13.3 °C 1011.4 hPa WNW 9.3 km/h 9.3 km/h 59 % 0.0 mm 0.0 W/m2 CLR
03:13 21.7 °C 13.3 °C 1011.4 hPa NW 5.6 km/h 5.6 km/h 59 % 0.0 mm 0.0 W/m2 CLR
03:18 21.6 °C 13.4 °C 1011.4 hPa WNW 3.7 km/h 3.7 km/h 60 % 0.0 mm 0.0 W/m2 CLR
03:23 21.5 °C 13.4 °C 1011.4 hPa Calm     60 % 0.0 mm 0.0 W/m2 CLR
03:28 21.4 °C 13.3 °C 1011.4 hPa Calm     60 % 0.0 mm 0.0 W/m2 CLR
03:33 21.4 °C 13.6 °C 1011.4 hPa Calm     61 % 0.0 mm 0.0 W/m2 CLR
03:38 21.3 °C 13.4 °C 1011.1 hPa Calm     61 % 0.0 mm 0.0 W/m2 CLR
03:43 21.2 °C 13.4 °C 1011.1 hPa Calm     61 % 0.0 mm 0.0 W/m2 CLR
03:48 21.2 °C 13.3 °C 1011.4 hPa Calm     61 % 0.0 mm 0.0 W/m2 CLR
03:53 21.1 °C 13.2 °C 1011.4 hPa WNW 4.8 km/h 4.8 km/h 61 % 0.0 mm 0.0 W/m2 CLR
03:58 21.0 °C 13.4 °C 1011.4 hPa Calm   0.2 km/h 62 % 0.0 mm 0.0 W/m2 CLR
04:03 20.9 °C 13.4 °C 1011.4 hPa Calm     62 % 0.0 mm 0.0 W/m2 CLR
04:08 20.9 °C 13.3 °C 1011.4 hPa Calm     62 % 0.0 mm 0.0 W/m2 CLR
04:13 20.9 °C 13.3 °C 1011.7 hPa Calm     62 % 0.0 mm 0.0 W/m2 CLR
04:18 20.9 °C 13.3 °C 1011.4 hPa Calm     62 % 0.0 mm 0.0 W/m2 CLR
04:23 20.8 °C 13.3 °C 1011.4 hPa Calm     62 % 0.0 mm 0.0 W/m2 CLR
04:28 20.7 °C 13.2 °C 1011.1 hPa Calm     62 % 0.0 mm 0.0 W/m2 CLR
04:33 20.7 °C 13.1 °C 1011.1 hPa Calm     62 % 0.0 mm 0.0 W/m2 CLR
04:38 20.6 °C 13.3 °C 1011.4 hPa Calm     63 % 0.0 mm 0.0 W/m2 CLR
04:43 20.4 °C 13.2 °C 1011.4 hPa Calm     63 % 0.0 mm 0.0 W/m2 CLR
04:48 20.3 °C 13.3 °C 1011.4 hPa Calm     64 % 0.0 mm 0.0 W/m2 CLR
04:53 20.2 °C 13.2 °C 1011.4 hPa Calm     64 % 0.0 mm 0.0 W/m2 CLR
04:58 20.1 °C 13.1 °C 1011.1 hPa Calm     64 % 0.0 mm 0.0 W/m2 CLR
05:03 20.1 °C 13.3 °C 1011.1 hPa Calm     65 % 0.0 mm 0.0 W/m2 CLR
05:08 19.9 °C 13.4 °C 1011.1 hPa Calm     66 % 0.0 mm 0.0 W/m2 CLR
05:13 19.8 °C 13.3 °C 1011.1 hPa Calm     66 % 0.0 mm 0.0 W/m2 CLR
05:18 19.8 °C 13.4 °C 1011.1 hPa Calm     67 % 0.0 mm 0.0 W/m2 CLR
05:23 19.7 °C 13.4 °C 1011.1 hPa Calm     67 % 0.0 mm 0.0 W/m2 CLR
05:28 19.6 °C 13.3 °C 1011.1 hPa Calm     67 % 0.0 mm 0.0 W/m2 CLR
05:33 19.6 °C 13.5 °C 1011.1 hPa Calm     68 % 0.0 mm 0.0 W/m2 CLR
05:38 19.4 °C 13.4 °C 1011.4 hPa Calm     68 % 0.0 mm 0.0 W/m2 CLR
05:43 19.4 °C 13.3 °C 1011.1 hPa Calm     68 % 0.0 mm 0.0 W/m2 CLR
05:48 19.4 °C 13.3 °C 1011.1 hPa Calm     68 % 0.0 mm 0.0 W/m2 CLR
05:53 19.3 °C 13.3 °C 1010.7 hPa Calm     68 % 0.0 mm 0.0 W/m2 CLR
05:58 19.3 °C 13.3 °C 1010.7 hPa Calm     68 % 0.0 mm 0.0 W/m2 CLR
06:03 19.3 °C 13.5 °C 1010.7 hPa Calm     69 % 0.0 mm 0.0 W/m2 CLR
06:08 19.3 °C 13.7 °C 1011.1 hPa Calm     70 % 0.0 mm 0.0 W/m2 CLR
06:13 19.3 °C 13.4 °C 1011.1 hPa Calm     69 % 0.0 mm 0.0 W/m2 CLR
06:18 19.2 °C 13.4 °C 1011.1 hPa Calm     69 % 0.0 mm 0.0 W/m2 CLR
06:23 19.2 °C 13.2 °C 1011.1 hPa Calm     68 % 0.0 mm 0.0 W/m2 CLR
06:28 19.2 °C 13.2 °C 1011.1 hPa Calm     68 % 0.0 mm 0.0 W/m2 CLR
06:33 19.2 °C 13.1 °C 1010.7 hPa Calm     68 % 0.0 mm 0.0 W/m2 CLR
06:38 19.1 °C 13.3 °C 1010.7 hPa Calm     69 % 0.0 mm 0.0 W/m2 OVC
06:43 19.1 °C 13.3 °C 1011.1 hPa Calm     69 % 0.0 mm 0.0 W/m2 OVC
06:48 19.1 °C 13.2 °C 1011.1 hPa Calm     69 % 0.0 mm 0.0 W/m2 OVC
06:53 19.1 °C 13.2 °C 1011.1 hPa Calm     69 % 0.0 mm 11.0 W/m2 BKN
06:58 19.1 °C 13.2 °C 1011.1 hPa Calm     69 % 0.0 mm 12.0 W/m2 BKN
07:03 19.0 °C 13.2 °C 1011.4 hPa WSW 1.9 km/h 1.9 km/h 69 % 0.0 mm 14.0 W/m2 BKN
07:08 19.1 °C 13.2 °C 1011.7 hPa Calm     69 % 0.0 mm 12.0 W/m2 BKN
07:13 19.1 °C 13.5 °C 1011.4 hPa Calm     70 % 0.0 mm 11.0 W/m2 BKN
07:18 19.1 °C 13.5 °C 1011.4 hPa Calm     70 % 0.0 mm 5.0 W/m2 OVC
07:23 19.1 °C 13.5 °C 1011.4 hPa Calm     70 % 0.0 mm 11.0 W/m2 BKN
07:28 19.1 °C 13.5 °C 1011.1 hPa Calm     70 % 0.0 mm 16.0 W/m2 BKN
07:33 19.1 °C 13.7 °C 1011.1 hPa Calm     71 % 0.0 mm 11.0 W/m2 BKN
07:38 19.1 °C 13.9 °C 1011.1 hPa Calm     72 % 0.0 mm 11.0 W/m2 BKN
07:43 18.9 °C 13.8 °C 1011.7 hPa West 5.6 km/h 5.6 km/h 72 % 0.0 mm 12.0 W/m2 BKN
07:48 18.8 °C 13.9 °C 1011.7 hPa Calm     73 % 0.0 mm 12.0 W/m2 BKN
07:53 18.8 °C 14.3 °C 1012.1 hPa Calm     75 % 0.0 mm 9.0 W/m2 BKN
07:58 18.7 °C 14.2 °C 1012.1 hPa Calm     75 % 0.0 mm 5.0 W/m2 BKN
08:03 18.7 °C 14.3 °C 1011.7 hPa Calm     76 % 0.3 mm 9.0 W/m2 RA
08:08 18.6 °C 14.4 °C 1011.4 hPa Calm     77 % 0.8 mm 12.0 W/m2 RA
08:13 18.4 °C 14.7 °C 1011.7 hPa Calm     79 % 0.8 mm 18.0 W/m2 BKN
08:18 18.3 °C 15.2 °C 1012.1 hPa Calm     82 % 0.8 mm 25.0 W/m2 BKN
08:23 18.2 °C 15.2 °C 1012.1 hPa Calm     83 % 0.8 mm 26.0 W/m2 BKN
08:28 18.0 °C 15.1 °C 1012.1 hPa Calm     83 % 0.8 mm 42.0 W/m2 BKN
08:33 18.0 °C 15.3 °C 1011.7 hPa North 5.6 km/h 5.6 km/h 84 % 1.0 mm 60.0 W/m2 RA
08:38 18.0 °C 15.4 °C 1011.7 hPa Calm     85 % 1.3 mm 91.0 W/m2 RA
08:43 17.9 °C 15.4 °C 1011.7 hPa Calm     85 % 1.3 mm 183.0 W/m2 FEW
08:48 18.0 °C 15.4 °C 1011.7 hPa ENE 1.6 km/h 1.6 km/h 85 % 1.3 mm 67.0 W/m2 CLR
08:53 18.0 °C 15.4 °C 1011.1 hPa East 8.0 km/h 8.0 km/h 85 % 1.3 mm 30.0 W/m2 FEW
08:58 17.9 °C 15.6 °C 1011.1 hPa ESE 5.6 km/h 5.6 km/h 86 % 1.5 mm 21.0 W/m2 RA
09:03 17.9 °C 15.5 °C 1011.1 hPa SE 3.7 km/h 3.7 km/h 86 % 1.3 mm 21.0 W/m2 BKN
09:08 17.8 °C 15.4 °C 1011.1 hPa SE 6.4 km/h 6.4 km/h 86 % 0.5 mm 18.0 W/m2 BKN
09:09 17.8 °C 15.4 °C 1011.1 hPa SE 7.4 km/h 7.4 km/h 86 % 0.8 mm 18.0 W/m2 RA
09:14 17.7 °C 15.3 °C 1010.7 hPa SE 13.0 km/h 13.0 km/h 86 % 1.5 mm 25.0 W/m2 RA
09:19 17.6 °C 15.4 °C 1010.7 hPa SE 9.3 km/h 9.3 km/h 87 % 2.0 mm 25.0 W/m2 RA
09:24 17.4 °C 15.2 °C 1011.4 hPa West 5.6 km/h 5.6 km/h 87 % 2.0 mm 14.0 W/m2 BKN
09:29 17.4 °C 15.2 °C 1011.4 hPa NW 7.4 km/h 7.4 km/h 87 % 4.1 mm 12.0 W/m2 RA
09:34 17.4 °C 15.4 °C 1011.4 hPa Calm     88 % 7.1 mm 18.0 W/m2 RA
09:39 17.3 °C 15.5 °C 1011.4 hPa North 11.1 km/h 11.1 km/h 89 % 7.1 mm 42.0 W/m2 RA
09:44 17.3 °C 15.5 °C 1011.4 hPa Calm     89 % 7.1 mm 90.0 W/m2 BKN
09:49 17.3 °C 15.7 °C 1011.4 hPa Calm     90 % 7.1 mm 104.0 W/m2 FEW
09:54 17.3 °C 15.7 °C 1011.7 hPa Calm     90 % 7.1 mm 95.0 W/m2 CLR
09:59 17.3 °C 15.5 °C 1011.7 hPa Calm     89 % 7.1 mm 77.0 W/m2 CLR
10:04 17.3 °C 15.5 °C 1011.7 hPa Calm     89 % 7.1 mm 63.0 W/m2 FEW
10:09 17.4 °C 15.6 °C 1011.7 hPa Calm     89 % 6.9 mm 74.0 W/m2 FEW
10:14 17.4 °C 15.6 °C 1011.7 hPa Calm     89 % 6.1 mm 113.0 W/m2 FEW
10:19 17.4 °C 15.6 °C 1011.4 hPa Calm     89 % 5.6 mm 142.0 W/m2 CLR
10:24 17.6 °C 15.7 °C 1011.7 hPa Calm     89 % 5.6 mm 181.0 W/m2 CLR
10:29 17.6 °C 15.6 °C 1011.7 hPa Calm     88 % 3.6 mm 155.0 W/m2 CLR
10:34 17.6 °C 15.6 °C 1011.7 hPa Calm     88 % 0.3 mm 158.0 W/m2 CLR
10:39 17.7 °C 15.7 °C 1011.7 hPa North 5.6 km/h 5.6 km/h 88 % 0.0 mm 123.0 W/m2 CLR
10:44 17.7 °C 15.7 °C 1011.7 hPa Calm     88 % 0.0 mm 120.0 W/m2 CLR
10:49 17.7 °C 15.7 °C 1011.7 hPa Calm     88 % 0.0 mm 155.0 W/m2 CLR
10:54 17.7 °C 15.7 °C 1011.4 hPa Calm     88 % 0.0 mm 230.0 W/m2 CLR
10:59 17.8 °C 15.8 °C 1011.4 hPa Calm     88 % 0.0 mm 374.0 W/m2 CLR
11:04 18.0 °C 16.0 °C 1011.7 hPa Calm     88 % 0.0 mm 278.0 W/m2 CLR
11:09 18.2 °C 15.6 °C 1011.7 hPa Calm     85 % 0.0 mm 206.0 W/m2 CLR
11:14 18.3 °C 15.9 °C 1011.7 hPa Calm     86 % 0.0 mm 141.0 W/m2 CLR
11:19 18.3 °C 15.8 °C 1011.7 hPa Calm     85 % 0.0 mm 197.0 W/m2 CLR
11:24 18.5 °C 16.1 °C 1011.7 hPa Calm     86 % 0.0 mm 589.0 W/m2 CLR
11:29 18.6 °C 16.2 °C 1012.1 hPa Calm     86 % 0.0 mm 287.0 W/m2 CLR
11:30 18.6 °C 16.2 °C 1012.1 hPa Calm     86 % 0.0 mm 376.0 W/m2 CLR
11:35 18.6 °C 16.1 °C 1011.7 hPa Calm     85 % 0.0 mm 295.0 W/m2 CLR
11:40 18.7 °C 16.3 °C 1012.1 hPa Calm     86 % 0.0 mm 199.0 W/m2 CLR
11:45 18.8 °C 16.4 °C 1011.7 hPa Calm     86 % 0.0 mm 422.0 W/m2 CLR
11:50 19.1 °C 16.9 °C 1011.7 hPa Calm     87 % 0.0 mm 807.0 W/m2 CLR
11:55 19.4 °C 16.8 °C 1011.7 hPa Calm     85 % 0.0 mm 884.0 W/m2 CLR
12:00 19.9 °C 17.5 °C 1011.7 hPa Calm     86 % 0.0 mm 807.0 W/m2 CLR
12:05 20.1 °C 17.5 °C 1011.7 hPa Calm     85 % 0.0 mm 853.0 W/m2 CLR
12:11 20.3 °C 17.5 °C 1011.7 hPa Calm     84 % 0.0 mm 455.0 W/m2 CLR
12:16 20.6 °C 17.8 °C 1011.7 hPa Calm     84 % 0.0 mm 455.0 W/m2 CLR
12:21 20.8 °C 17.8 °C 1011.7 hPa ENE 5.6 km/h 5.6 km/h 83 % 0.0 mm 513.0 W/m2 CLR
12:26 20.9 °C 17.6 °C 1011.4 hPa Calm     81 % 0.0 mm 635.0 W/m2 CLR
12:31 21.2 °C 17.9 °C 1011.4 hPa Calm     82 % 0.0 mm 568.0 W/m2 CLR
12:36 21.4 °C 18.2 °C 1011.4 hPa Calm     82 % 0.0 mm 1021.0 W/m2 CLR
12:41 21.6 °C 18.2 °C 1011.4 hPa NE 7.4 km/h 7.4 km/h 81 % 0.0 mm 673.0 W/m2 CLR
12:46 21.8 °C 18.6 °C 1011.4 hPa NE 9.7 km/h 9.7 km/h 82 % 0.0 mm 485.0 W/m2 CLR
12:51 21.9 °C 18.3 °C 1011.4 hPa ENE 7.4 km/h 7.4 km/h 80 % 0.0 mm 577.0 W/m2 CLR
12:56 21.9 °C 18.5 °C 1011.1 hPa NNE 7.4 km/h 7.4 km/h 81 % 0.0 mm 543.0 W/m2 CLR
13:01 22.1 °C 18.7 °C 1011.1 hPa ENE 3.7 km/h 3.7 km/h 81 % 0.0 mm 552.0 W/m2 CLR
13:06 22.3 °C 18.7 °C 1011.1 hPa NNE 7.4 km/h 7.4 km/h 80 % 0.0 mm 388.0 W/m2 CLR
13:11 22.5 °C 18.9 °C 1011.1 hPa NE 11.1 km/h 11.1 km/h 80 % 0.0 mm 469.0 W/m2 CLR
13:16 22.8 °C 19.3 °C 1011.1 hPa NE 1.9 km/h   81 % 0.0 mm 689.0 W/m2 CLR
13:21 23.2 °C 19.3 °C 1011.1 hPa ENE 7.4 km/h 7.4 km/h 79 % 0.0 mm 1023.0 W/m2 CLR
13:26 23.6 °C 19.8 °C 1010.7 hPa ENE 14.8 km/h 14.8 km/h 79 % 0.0 mm 1099.0 W/m2 CLR
13:31 23.9 °C 19.9 °C 1010.7 hPa NNE 13.0 km/h 13.0 km/h 78 % 0.0 mm 1009.0 W/m2 CLR
13:36 24.0 °C 19.9 °C 1010.7 hPa NE 16.7 km/h 16.7 km/h 78 % 0.0 mm 962.0 W/m2 CLR
13:41 24.1 °C 19.8 °C 1010.7 hPa NE 16.1 km/h 16.1 km/h 77 % 0.0 mm 912.0 W/m2 CLR
13:46 24.3 °C 19.8 °C 1010.7 hPa ENE 16.7 km/h 16.7 km/h 76 % 0.0 mm 895.0 W/m2 CLR
13:51 24.6 °C 19.8 °C 1010.4 hPa ENE 16.7 km/h 16.7 km/h 75 % 0.0 mm 909.0 W/m2 CLR
13:56 24.8 °C 19.7 °C 1010.4 hPa ENE 16.7 km/h 16.7 km/h 73 % 0.0 mm 904.0 W/m2 CLR
14:01 25.1 °C 19.7 °C 1010.4 hPa East 11.1 km/h 11.1 km/h 72 % 0.0 mm 911.0 W/m2 CLR
14:06 25.3 °C 19.9 °C 1010.0 hPa East 13.0 km/h 13.0 km/h 72 % 0.0 mm 930.0 W/m2 CLR
14:11 25.7 °C 20.2 °C 1010.0 hPa East 20.4 km/h 20.4 km/h 72 % 0.0 mm 969.0 W/m2 CLR
14:16 25.8 °C 20.1 °C 1009.7 hPa ESE 18.5 km/h 18.5 km/h 71 % 0.0 mm 997.0 W/m2 CLR
14:21 26.2 °C 20.5 °C 1010.0 hPa ESE 7.4 km/h 7.4 km/h 71 % 0.0 mm 868.0 W/m2 CLR
14:26 26.4 °C 20.2 °C 1010.0 hPa ENE 16.7 km/h 16.7 km/h 69 % 0.0 mm 705.0 W/m2 CLR
14:31 26.3 °C 20.7 °C 1009.7 hPa ENE 17.7 km/h 17.7 km/h 71 % 0.0 mm 497.0 W/m2 CLR
14:36 26.3 °C 20.2 °C 1009.7 hPa East 14.8 km/h 14.8 km/h 69 % 0.0 mm 318.0 W/m2 CLR
14:41 26.3 °C 20.2 °C 1010.0 hPa ENE 18.5 km/h 18.5 km/h 69 % 0.0 mm 237.0 W/m2 CLR
14:46 26.3 °C 19.9 °C 1009.7 hPa East 16.7 km/h 16.7 km/h 68 % 0.0 mm 183.0 W/m2 CLR
14:51 26.3 °C 19.9 °C 1009.4 hPa East 17.7 km/h 17.7 km/h 68 % 0.0 mm 148.0 W/m2 CLR
14:56 26.2 °C 19.6 °C 1009.7 hPa East 14.8 km/h 14.8 km/h 67 % 0.0 mm 114.0 W/m2 CLR
15:01 26.2 °C 19.8 °C 1010.0 hPa ESE 11.1 km/h 11.1 km/h 68 % 0.0 mm 93.0 W/m2 CLR
15:06 26.2 °C 19.3 °C 1010.0 hPa ESE 14.8 km/h 14.8 km/h 66 % 0.0 mm 74.0 W/m2 CLR
15:12 26.1 °C 19.5 °C 1009.4 hPa East 6.4 km/h 6.4 km/h 67 % 0.0 mm 63.0 W/m2 FEW
15:17 26.1 °C 19.4 °C 1009.4 hPa ESE 13.0 km/h 13.0 km/h 67 % 0.0 mm 58.0 W/m2 FEW
15:22 25.9 °C 19.1 °C 1010.0 hPa East 16.7 km/h 16.7 km/h 66 % 0.0 mm 54.0 W/m2 SCT
15:27 25.9 °C 19.1 °C 1010.0 hPa ESE 18.5 km/h 18.5 km/h 66 % 0.0 mm 46.0 W/m2 SCT
15:32 25.9 °C 19.1 °C 1009.7 hPa ESE 19.3 km/h 19.3 km/h 66 % 0.0 mm 35.0 W/m2 SCT
15:42 25.7 °C 19.1 °C 1009.7 hPa ESE 13.0 km/h 13.0 km/h 67 % 0.0 mm 30.0 W/m2 BKN
15:47 25.6 °C 19.2 °C 1009.7 hPa SE 12.9 km/h 12.9 km/h 68 % 0.0 mm 33.0 W/m2 BKN
15:52 25.5 °C 19.2 °C 1009.7 hPa ESE 9.3 km/h 9.3 km/h 68 % 0.0 mm 42.0 W/m2 BKN
15:57 25.4 °C 19.1 °C 1009.7 hPa ESE 16.1 km/h 16.1 km/h 68 % 0.0 mm 56.0 W/m2 BKN
16:02 25.3 °C 19.0 °C 1009.7 hPa ESE 18.5 km/h 18.5 km/h 68 % 0.0 mm 72.0 W/m2 SCT
16:07 25.2 °C 18.8 °C 1009.7 hPa ESE 22.2 km/h 22.2 km/h 68 % 0.0 mm 105.0 W/m2 FEW
16:12 25.1 °C 19.0 °C 1009.7 hPa ESE 18.5 km/h 18.5 km/h 69 % 0.0 mm 163.0 W/m2 CLR
16:17 25.1 °C 18.9 °C 1009.7 hPa ESE 18.5 km/h 18.5 km/h 69 % 0.0 mm 276.0 W/m2 CLR
16:22 25.4 °C 19.3 °C 1009.7 hPa ESE 18.5 km/h 18.5 km/h 69 % 0.0 mm 874.0 W/m2 CLR
16:27 25.8 °C 19.7 °C 1009.7 hPa ESE 14.8 km/h 14.8 km/h 69 % 0.0 mm 733.0 W/m2 CLR
16:32 26.0 °C 19.4 °C 1009.7 hPa SE 18.5 km/h 18.5 km/h 67 % 0.0 mm 582.0 W/m2 CLR
16:37 26.1 °C 19.2 °C 1009.4 hPa SSE 24.1 km/h 24.1 km/h 66 % 0.0 mm 673.0 W/m2 CLR
16:42 26.1 °C 19.2 °C 1009.7 hPa SSE 22.2 km/h 22.2 km/h 66 % 0.0 mm 842.0 W/m2 CLR
16:47 26.3 °C 19.7 °C 1009.7 hPa SSE 25.9 km/h 25.9 km/h 67 % 0.0 mm 782.0 W/m2 CLR
16:52 26.1 °C 19.5 °C 1009.4 hPa SE 18.5 km/h 18.5 km/h 67 % 0.0 mm 731.0 W/m2 CLR
16:57 26.1 °C 19.0 °C 1009.4 hPa SE 14.8 km/h 14.8 km/h 65 % 0.0 mm 705.0 W/m2 CLR
17:02 26.3 °C 19.2 °C 1009.4 hPa SE 27.8 km/h 27.8 km/h 65 % 0.0 mm 691.0 W/m2 CLR
17:07 26.4 °C 19.5 °C 1009.7 hPa SE 18.5 km/h 18.5 km/h 66 % 0.0 mm 679.0 W/m2 CLR
17:12 26.7 °C 19.6 °C 1009.7 hPa SSE 22.2 km/h 22.2 km/h 65 % 0.0 mm 664.0 W/m2 CLR
17:17 26.6 °C 19.2 °C 1009.4 hPa ESE 24.1 km/h 24.1 km/h 64 % 0.0 mm 656.0 W/m2 CLR
17:22 26.5 °C 19.1 °C 1009.4 hPa SE 16.7 km/h 16.7 km/h 64 % 0.0 mm 635.0 W/m2 CLR
17:27 26.6 °C 19.2 °C 1009.4 hPa South 13.0 km/h 13.0 km/h 64 % 0.0 mm 622.0 W/m2 CLR
17:32 26.8 °C 19.2 °C 1009.4 hPa South 17.7 km/h 17.7 km/h 63 % 0.0 mm 603.0 W/m2 CLR
17:37 26.9 °C 19.3 °C 1009.4 hPa ESE 25.9 km/h 25.9 km/h 63 % 0.0 mm 585.0 W/m2 CLR
17:42 27.1 °C 19.2 °C 1009.4 hPa SE 33.8 km/h 33.8 km/h 62 % 0.0 mm 568.0 W/m2 CLR
17:47 27.2 °C 19.3 °C 1009.4 hPa South 18.5 km/h 18.5 km/h 62 % 0.0 mm 563.0 W/m2 CLR
17:52 27.1 °C 19.2 °C 1009.0 hPa SE 29.6 km/h 29.6 km/h 62 % 0.0 mm 547.0 W/m2 CLR
17:57 27.0 °C 19.1 °C 1009.0 hPa ESE 18.5 km/h 18.5 km/h 62 % 0.0 mm 534.0 W/m2 CLR
18:02 27.1 °C 19.2 °C 1009.0 hPa South 14.8 km/h 14.8 km/h 62 % 0.0 mm 526.0 W/m2 CLR
18:07 27.0 °C 19.1 °C 1009.0 hPa SSE 16.1 km/h 16.1 km/h 62 % 0.0 mm 513.0 W/m2 CLR
18:12 27.0 °C 19.1 °C 1009.0 hPa SE 9.3 km/h 9.3 km/h 62 % 0.0 mm 499.0 W/m2 CLR
18:17 27.1 °C 19.2 °C 1009.0 hPa SE 13.0 km/h 13.0 km/h 62 % 0.0 mm 482.0 W/m2 CLR
18:22 27.2 °C 19.1 °C 1008.7 hPa SE 13.0 km/h 13.0 km/h 61 % 0.0 mm 462.0 W/m2 CLR
18:27 27.2 °C 19.1 °C 1008.7 hPa SE 16.7 km/h 16.7 km/h 61 % 0.0 mm 452.0 W/m2 CLR
18:32 27.2 °C 19.1 °C 1008.7 hPa ESE 16.7 km/h 16.7 km/h 61 % 0.0 mm 436.0 W/m2 CLR
18:37 27.3 °C 19.2 °C 1008.7 hPa SE 16.7 km/h 16.7 km/h 61 % 0.0 mm 420.0 W/m2 CLR
18:42 27.5 °C 19.1 °C 1008.7 hPa SE 16.7 km/h 16.7 km/h 60 % 0.0 mm 406.0 W/m2 CLR
18:43 27.5 °C 19.1 °C 1008.7 hPa SE 18.5 km/h 18.5 km/h 60 % 0.0 mm 401.0 W/m2 CLR
18:48 27.4 °C 18.9 °C 1008.7 hPa SSE 18.5 km/h 18.5 km/h 60 % 0.0 mm 388.0 W/m2 CLR
18:53 27.4 °C 18.9 °C 1009.0 hPa SE 13.0 km/h 13.0 km/h 60 % 0.0 mm 373.0 W/m2 CLR
18:58 27.6 °C 18.8 °C 1009.0 hPa SE 14.8 km/h 14.8 km/h 59 % 0.0 mm 360.0 W/m2 CLR
19:03 27.6 °C 18.9 °C 1008.7 hPa South 14.8 km/h 14.8 km/h 59 % 0.0 mm 348.0 W/m2 CLR
19:08 27.6 °C 18.9 °C 1008.7 hPa ESE 14.8 km/h 14.8 km/h 59 % 0.0 mm 320.0 W/m2 CLR
19:13 27.6 °C 18.9 °C 1008.7 hPa Calm     59 % 0.0 mm 313.0 W/m2 CLR
19:18 27.8 °C 19.1 °C 1009.0 hPa SSE 9.3 km/h 9.3 km/h 59 % 0.0 mm 301.0 W/m2 CLR
19:23 27.8 °C 19.1 °C 1009.0 hPa SE 9.3 km/h 9.3 km/h 59 % 0.0 mm 288.0 W/m2 CLR
19:28 27.9 °C 18.9 °C 1009.0 hPa SE 16.7 km/h 16.7 km/h 58 % 0.0 mm 267.0 W/m2 CLR
19:33 27.8 °C 18.8 °C 1009.0 hPa SW 14.8 km/h 14.8 km/h 58 % 0.0 mm 260.0 W/m2 CLR
19:38 27.9 °C 18.6 °C 1009.0 hPa SSW 14.8 km/h 14.8 km/h 57 % 0.0 mm 257.0 W/m2 CLR
19:43 28.0 °C 18.9 °C 1009.0 hPa South 9.7 km/h 9.7 km/h 58 % 0.0 mm 246.0 W/m2 CLR
19:48 27.9 °C 18.9 °C 1009.0 hPa South 5.6 km/h 5.6 km/h 58 % 0.0 mm 209.0 W/m2 CLR
19:53 27.8 °C 18.8 °C 1009.0 hPa SSE 16.7 km/h 16.7 km/h 58 % 0.0 mm 186.0 W/m2 CLR
19:58 27.6 °C 18.9 °C 1009.0 hPa Calm     59 % 0.0 mm 172.0 W/m2 CLR
20:03 27.6 °C 19.1 °C 1009.0 hPa Calm     60 % 0.0 mm 155.0 W/m2 CLR
20:08 27.5 °C 19.3 °C 1009.0 hPa SE 13.0 km/h 13.0 km/h 61 % 0.0 mm 141.0 W/m2 CLR
20:13 27.3 °C 19.1 °C 1009.0 hPa SE 18.5 km/h 18.5 km/h 61 % 0.0 mm 123.0 W/m2 CLR
20:18 27.1 °C 19.2 °C 1009.0 hPa SE 14.8 km/h 14.8 km/h 62 % 0.0 mm 107.0 W/m2 CLR
20:23 26.8 °C 19.2 °C 1009.0 hPa ESE 11.1 km/h 11.1 km/h 63 % 0.0 mm 93.0 W/m2 CLR
20:28 26.6 °C 19.2 °C 1009.4 hPa SE 5.6 km/h 5.6 km/h 64 % 0.0 mm 81.0 W/m2 FEW
20:33 26.5 °C 19.1 °C 1009.0 hPa SE 13.0 km/h 13.0 km/h 64 % 0.0 mm 67.0 W/m2 FEW
20:38 26.3 °C 19.0 °C 1009.0 hPa SE 14.8 km/h 14.8 km/h 64 % 0.0 mm 56.0 W/m2 SCT
20:43 26.2 °C 19.1 °C 1009.0 hPa SE 11.1 km/h 11.1 km/h 65 % 0.0 mm 44.0 W/m2 BKN
20:52 25.9 °C 18.8 °C 1009.4 hPa ESE 16.7 km/h 16.7 km/h 65 % 0.0 mm 32.0 W/m2 BKN
20:57 25.8 °C 19.0 °C 1009.4 hPa SE 13.0 km/h 13.0 km/h 66 % 0.0 mm 25.0 W/m2 BKN
21:02 25.7 °C 19.1 °C 1009.4 hPa SE 13.0 km/h 13.0 km/h 67 % 0.0 mm 19.0 W/m2 BKN
21:07 25.5 °C 18.9 °C 1009.4 hPa SSE 7.4 km/h 7.4 km/h 67 % 0.0 mm 16.0 W/m2 BKN
21:12 25.4 °C 18.8 °C 1009.4 hPa SE 14.8 km/h 14.8 km/h 67 % 0.0 mm 12.0 W/m2 BKN
21:17 25.3 °C 18.7 °C 1009.4 hPa SE 13.0 km/h 13.0 km/h 67 % 0.0 mm 9.0 W/m2 BKN
21:22 25.2 °C 18.8 °C 1009.4 hPa SE 14.8 km/h 14.8 km/h 68 % 0.0 mm 5.0 W/m2 OVC
21:27 25.1 °C 18.7 °C 1009.4 hPa SE 11.1 km/h 11.1 km/h 68 % 0.0 mm 0.0 W/m2 OVC
21:32 24.9 °C 18.9 °C 1009.7 hPa SE 1.9 km/h   69 % 0.0 mm 0.0 W/m2 OVC
21:37 24.8 °C 18.8 °C 1009.7 hPa SSE 3.7 km/h 3.7 km/h 69 % 0.0 mm 0.0 W/m2 CLR
21:42 24.7 °C 18.7 °C 1009.7 hPa Calm     69 % 0.0 mm 0.0 W/m2 CLR
21:47 24.7 °C 18.8 °C 1010.0 hPa Calm     70 % 0.0 mm 0.0 W/m2 CLR
21:48 24.7 °C 18.8 °C 1010.0 hPa Calm     70 % 0.0 mm 0.0 W/m2 CLR
21:53 24.6 °C 18.7 °C 1010.0 hPa Calm     70 % 0.0 mm 0.0 W/m2 CLR
21:58 24.4 °C 18.8 °C 1010.0 hPa Calm     71 % 0.0 mm 0.0 W/m2 CLR
22:03 24.3 °C 18.9 °C 1010.0 hPa Calm     72 % 0.0 mm 0.0 W/m2 CLR
22:08 24.2 °C 18.8 °C 1010.0 hPa Calm     72 % 0.0 mm 0.0 W/m2 CLR
22:10 24.2 °C 18.8 °C 1010.4 hPa Calm     72 % 0.0 mm 0.0 W/m2 CLR
22:15 24.1 °C 18.7 °C 1010.4 hPa Calm     72 % 0.0 mm 0.0 W/m2 CLR
22:20 24.1 °C 18.7 °C 1010.4 hPa Calm     72 % 0.0 mm 0.0 W/m2 CLR
22:25 24.0 °C 18.7 °C 1010.7 hPa Calm     72 % 0.0 mm 0.0 W/m2 CLR
22:30 23.8 °C 18.5 °C 1010.4 hPa Calm     72 % 0.0 mm 0.0 W/m2 CLR
22:35 23.7 °C 18.6 °C 1010.7 hPa Calm     73 % 0.0 mm 0.0 W/m2 CLR
22:40 23.6 °C 18.7 °C 1010.7 hPa Calm     74 % 0.0 mm 0.0 W/m2 CLR
22:45 23.5 °C 18.6 °C 1010.7 hPa Calm     74 % 0.0 mm 0.0 W/m2 CLR
22:50 23.4 °C 18.5 °C 1010.4 hPa SSE 7.4 km/h 7.4 km/h 74 % 0.0 mm 0.0 W/m2 CLR
22:55 23.4 °C 18.3 °C 1010.4 hPa SSE 9.3 km/h 9.3 km/h 73 % 0.0 mm 0.0 W/m2 CLR
23:00 23.4 °C 18.3 °C 1010.4 hPa SSE 9.7 km/h 9.7 km/h 73 % 0.0 mm 0.0 W/m2 CLR
23:05 23.3 °C 18.2 °C 1010.4 hPa Calm     73 % 0.0 mm 0.0 W/m2 CLR
23:10 23.3 °C 18.4 °C 1010.4 hPa Calm     74 % 0.0 mm 0.0 W/m2 CLR
23:15 23.2 °C 18.3 °C 1010.4 hPa Calm     74 % 0.0 mm 0.0 W/m2 CLR
23:20 23.1 °C 18.4 °C 1010.4 hPa Calm     75 % 0.0 mm 0.0 W/m2 CLR
23:25 23.0 °C 18.3 °C 1010.4 hPa Calm     75 % 0.0 mm 0.0 W/m2 CLR
23:30 22.8 °C 18.4 °C 1010.4 hPa ESE 3.2 km/h 3.2 km/h 76 % 0.0 mm 0.0 W/m2 CLR
23:35 22.7 °C 18.5 °C 1010.4 hPa SE 11.1 km/h 11.1 km/h 77 % 0.0 mm 0.0 W/m2 CLR
23:40 22.7 °C 18.5 °C 1010.4 hPa SSE 7.4 km/h 7.4 km/h 77 % 0.0 mm 0.0 W/m2 CLR
23:45 22.7 °C 18.4 °C 1010.4 hPa SSE 5.6 km/h 5.6 km/h 77 % 0.0 mm 0.0 W/m2 CLR
23:50 22.6 °C 18.4 °C 1010.4 hPa SSE 6.4 km/h 6.4 km/h 77 % 0.0 mm 0.0 W/m2 CLR
23:55 22.6 °C 18.5 °C 1010.7 hPa SE 13.0 km/h 13.0 km/h 78 % 0.0 mm 0.0 W/m2 CLR
Lo Temps de Massalio
Compliments of Weather Underground - 1.25 mb